Regional Weather Roundup
Issued by NWS Charleston, WV

Home | Current Version | Previous Version | Text Only | Print | Product List | Glossary Off
Versions: 1 2 3 4 5 6 7 8 9 10 11 12 13 14 15 16 17 18 19 20 21 22 23 24 25 26 27 28 29 30 31 32 33 34 35 36 37 38 39 40 41 42 43 44 45 46 47 48 49 50

000
ASUS41 KRLX 010610
RWRRLX
West Virginia Regional Weather Roundup
National Weather Service Charleston WV
200 AM EDT WED OCT 01 2014

Note: "fair" indicates few or no clouds below 12,000 feet with no
significant weather and/or obstructions to visibility.

WVZ003-010700-
Northern Panhandle of West Virginia

CITY           SKY/WX    TMP DP  RH WIND       PRES   REMARKS
WHEELING       CLOUDY    58  55  90 NE5       29.97F
$$

WVZ009-010700-
Northwest West Virginia

CITY           SKY/WX    TMP DP  RH WIND       PRES   REMARKS
PARKERSBURG    MOCLDY    58  56  93 NW3       29.99S
$$

WVZ006-010700-
Western West Virginia

CITY           SKY/WX    TMP DP  RH WIND       PRES   REMARKS
HUNTINGTON     CLOUDY    61  58  90 N3        29.96S
$$

WVZ015-010700-
West Central West Virginia

CITY           SKY/WX    TMP DP  RH WIND       PRES   REMARKS
CHARLESTON     MOCLDY    61  58  90 S3        29.96R
$$

WVZ031-010700-
North Central West Virginia

CITY           SKY/WX    TMP DP  RH WIND       PRES   REMARKS
CLARKSBURG     MOCLDY    57  57 100 N3        29.97R FOG
MORGANTOWN     FOG       56  53  90 E3        29.98S VSB 1/4
$$

WVZ035-042-045-010700-
South Central West Virginia

CITY           SKY/WX    TMP DP  RH WIND       PRES   REMARKS
BECKLEY        CLEAR     57  52  83 S5        30.00S
BLUEFIELD      CLEAR     58  51  78 W6        30.02S
LEWISBURG      CLEAR     53  49  86 CALM      29.99S
$$

WVZ047-010700-
Northern Mountains of West Virginia

CITY           SKY/WX    TMP DP  RH WIND       PRES   REMARKS
ELKINS         CLOUDY    56  56 100 CALM      30.00R
$$

WVZ052-010700-
Eastern Panhandle of West Virginia

CITY           SKY/WX    TMP DP  RH WIND       PRES   REMARKS
MARTINSBURG    LGT RAIN  62  58  86 N3        29.97S FOG
PETERSBURG     LGT RAIN N/A N/A N/A CALM      29.99S
$$



USA.gov is the U.S. government's official web portal to all federal, state and local government web resources and services.